M.P.E.C. 2014-G75 Issued 2014 Apr. 12, 03:58 UT The Minor Planet Electronic Circulars contain information on unusual minor planets and routine data on comets. They are published on behalf of Commission 20 of the International Astronomical Union by the Minor Planet Center, Smithsonian Astrophysical Observatory, Cambridge, MA 02138, U.S.A. Prepared using the Tamkin Foundation Computer Network MPC@CFA.HARVARD.EDU URL https://www.minorplanetcenter.net/ ISSN 1523-6714 2014 GY48 Observations: K14G48Y* C2014 04 08.44012 15 45 21.90 +69 46 52.8 18.6 VqEG075703 K14G48Y C2014 04 08.44814 15 45 18.24 +69 47 05.6 18.5 VqEG075703 K14G48Y C2014 04 08.46420 15 45 11.17 +69 47 32.2 18.6 VqEG075703 K14G48Y C2014 04 08.48473615 45 01.90 +69 48 05.0 18.1 RtEG075H01 K14G48Y C2014 04 08.48841615 45 00.29 +69 48 10.8 18.2 RtEG075H01 K14G48Y C2014 04 08.49530115 44 57.27 +69 48 21.9 18.2 RtEG075H01 K14G48Y C2014 04 08.49859015 44 55.81 +69 48 27.1 18.2 RtEG075H01 K14G48Y C2014 04 08.50325 15 44 53.95 +69 48 36.0 18.6 VqEG075703 K14G48Y C2014 04 08.50459 15 44 53.26 +69 48 37.7 18.7 VqEG075703 K14G48Y C2014 04 08.50594 15 44 52.79 +69 48 40.0 18.6 VqEG075703 K14G48Y C2014 04 08.50728 15 44 52.14 +69 48 43.1 18.4 VqEG075703 K14G48Y C2014 04 08.51802 15 44 54.14 +69 48 46.5 18.2 RoEG075300 K14G48Y C2014 04 08.51965 15 44 53.40 +69 48 49.1 18.7 RoEG075300 K14G48Y C2014 04 08.52128 15 44 52.57 +69 48 52.5 18.8 RoEG075300 K14G48Y C2014 04 08.52290 15 44 52.04 +69 48 55.7 18.3 RoEG075300 K14G48Y C2014 04 08.52453 15 44 51.30 +69 48 58.8 18.1 RoEG075300 K14G48Y C2014 04 08.66837 15 43 48.84 +69 53 02.2 18.9 RqEG075O75 K14G48Y C2014 04 08.67948 15 43 43.96 +69 53 21.4 19.0 RqEG075O75 K14G48Y C2014 04 08.70170 15 43 33.72 +69 54 01.6 19.0 RqEG075O75 K14G48Y KC2014 04 08.82719 15 42 40.75 +69 57 16.5 17.9 VqEG075970 K14G48Y KC2014 04 08.83283 15 42 38.32 +69 57 26.2 18.1 VqEG075970 K14G48Y KC2014 04 08.84036 15 42 35.13 +69 57 39.8 18.2 VqEG075970 K14G48Y KC2014 04 08.84728 15 42 32.17 +69 57 51.5 qEG075J95 K14G48Y KC2014 04 08.84789 15 42 31.84 +69 57 52.9 18.2 VqEG075970 K14G48Y KC2014 04 08.85020 15 42 30.94 +69 57 56.8 qEG075J95 K14G48Y KC2014 04 08.85308 15 42 29.60 +69 58 01.7 18.1 RqEG075J95 K14G48Y KC2014 04 08.86108 15 42 26.06 +69 58 16.7 18.3 VqEG075970 K14G48Y KC2014 04 08.87049 15 42 21.94 +69 58 33.4 18.4 VqEG075970 K14G48Y KC2014 04 08.87442 15 42 20.61 +69 58 41.3 18.7 VqEG075958 K14G48Y KC2014 04 08.87974 15 42 18.79 +69 58 51.3 18.4 RcEG075I57 K14G48Y KC2014 04 08.88177 15 42 17.43 +69 58 54.3 18.7 VqEG075958 K14G48Y KC2014 04 08.88406 15 42 16.04 +69 58 58.6 17.9 RqEG075J69 K14G48Y KC2014 04 08.88551 15 42 16.36 +69 59 02.3 18.2 RcEG075I57 K14G48Y KC2014 04 08.88913 15 42 14.15 +69 59 07.6 18.9 VqEG075958 K14G48Y KC2014 04 08.88946 15 42 14.53 +69 59 09.8 17.7 RcEG075I57 K14G48Y KC2014 04 08.89157 15 42 12.66 +69 59 11.1 17.9 RqEG075J69 K14G48Y KC2014 04 08.89909 15 42 09.21 +69 59 24.2 17.9 RqEG075J69 K14G48Y C2014 04 08.91471 15 42 02.30 +69 59 52.5 17.6 RqEG075C23 K14G48Y C2014 04 08.91760 15 42 00.95 +69 59 57.9 17.6 RqEG075C23 K14G48Y KC2014 04 08.91992 15 42 00.05 +70 00 01.2 17.8 RqEG075J69 K14G48Y C2014 04 08.92049 15 41 59.67 +70 00 03.6 17.7 RqEG075C23 K14G48Y C2014 04 08.92338 15 41 58.29 +70 00 08.3 16.8 RqEG075C23 K14G48Y KC2014 04 08.92745 15 41 56.64 +70 00 15.2 17.9 RqEG075J69 K14G48Y C2014 04 08.92771 15 41 56.42 +70 00 15.6 17.7 RqEG075C23 K14G48Y KC2014 04 08.93496 15 41 53.36 +70 00 27.8 17.9 RqEG075J69 K14G48Y KC2014 04 08.94935 15 41 46.72 +70 00 53.0 18.3 VqEG075970 K14G48Y KC2014 04 08.95910 15 41 42.31 +70 01 10.1 18.6 VqEG075970 K14G48Y C2014 04 09.27499315 39 20.14 +70 10 08.4 18.1 RtEG075H01 K14G48Y C2014 04 09.27799715 39 18.70 +70 10 13.8 18.1 RtEG075H01 K14G48Y C2014 04 09.28667715 39 14.53 +70 10 29.3 17.9 RtEG075H01 K14G48Y C2014 04 09.29723715 39 09.40 +70 10 47.8 18.0 RtEG075H01 K14G48Y KC2014 04 09.40970415 38 12.98 +70 13 58.1 18.8 VrEG075H21 K14G48Y KC2014 04 09.41412515 38 10.79 +70 14 05.3 18.6 VrEG075H21 K14G48Y KC2014 04 09.41824815 38 08.76 +70 14 12.0 18.7 VrEG075H21 K14G48Y C2014 04 09.44613 15 37 55.42 +70 14 59.0 17.4 RqEG075H36 K14G48Y C2014 04 09.45328 15 37 51.86 +70 15 10.5 18.1 RqEG075H36 K14G48Y C2014 04 09.46346 15 37 47.75 +70 15 32.3 18.7 VqEG075703 K14G48Y C2014 04 09.46852 15 37 45.34 +70 15 38.8 18.4 VqEG075703 K14G48Y C2014 04 09.47359 15 37 42.65 +70 15 48.3 18.4 VqEG075703 K14G48Y C2014 04 09.47864 15 37 40.09 +70 15 55.2 18.3 VqEG075703 K14G48Y C2014 04 09.57525 15 36 59.77 +70 18 30.5 18.3 RoEG075300 K14G48Y C2014 04 09.57691 15 36 59.03 +70 18 33.9 18.1 RoEG075300 K14G48Y C2014 04 09.58022 15 36 57.25 +70 18 39.7 18.5 RoEG075300 K14G48Y C2014 04 09.58355 15 36 55.64 +70 18 45.5 18.3 RoEG075300 K14G48Y C2014 04 09.58521 15 36 54.94 +70 18 48.5 18.5 RoEG075300 K14G48Y C2014 04 09.77796 15 35 21.53 +70 23 57.9 18.2 RvEG075461 K14G48Y C2014 04 09.77889 15 35 21.02 +70 23 59.2 17.8 RvEG075461 K14G48Y C2014 04 09.77981 15 35 20.64 +70 24 00.8 18.3 RvEG075461 K14G48Y C2014 04 09.78073 15 35 20.20 +70 24 02.4 18.1 RvEG075461 K14G48Y C2014 04 09.78166 15 35 19.68 +70 24 04.2 18.2 RvEG075461 K14G48Y C2014 04 09.78257 15 35 19.23 +70 24 06.2 17.9 RvEG075461 K14G48Y C2014 04 09.78350 15 35 18.80 +70 24 07.7 17.9 RvEG075461 K14G48Y C2014 04 09.78441 15 35 18.35 +70 24 09.0 18.1 RvEG075461 K14G48Y C2014 04 09.78534 15 35 17.97 +70 24 11.0 17.9 RvEG075461 K14G48Y C2014 04 09.78626 15 35 17.38 +70 24 12.8 17.6 RvEG075461 K14G48Y C2014 04 09.78810 15 35 16.55 +70 24 15.9 18.2 RvEG075461 K14G48Y KC2014 04 09.81874 15 35 01.49 +70 25 07.0 18.5 qEG075151 K14G48Y KC2014 04 09.82443 15 34 58.69 +70 25 18.0 18.5 qEG075151 K14G48Y KC2014 04 09.83011 15 34 55.91 +70 25 27.0 18.5 qEG075151 K14G48Y C2014 04 09.84894 15 34 46.56 +70 26 02.5 18.2 RqEG075K51 K14G48Y C2014 04 09.85036 15 34 45.93 +70 26 04.9 18.1 RqEG075K51 K14G48Y C2014 04 09.85179 15 34 45.19 +70 26 07.5 18.2 RqEG075K51 K14G48Y C2014 04 09.85322 15 34 44.49 +70 26 09.9 18.2 RqEG075K51 K14G48Y KC2014 04 09.88284 15 34 30.17 +70 26 57.0 17.6 RqEG075C23 K14G48Y KC2014 04 09.88734 15 34 27.44 +70 27 10.9 17.8 RcEG075B20 K14G48Y KC2014 04 09.88928 15 34 26.38 +70 27 13.9 18.7 RqEG075K38 K14G48Y KC2014 04 09.89025 15 34 26.04 +70 27 16.0 17.4 RcEG075B20 K14G48Y KC2014 04 09.89149 15 34 25.59 +70 27 11.5 17.7 RqEG075C23 K14G48Y KC2014 04 09.89457 15 34 23.94 +70 27 24.1 17.4 RcEG075B20 K14G48Y KC2014 04 09.91180 15 34 14.89 +70 27 54.0 18.4 RqEG075K38 K14G48Y KC2014 04 09.91780 15 34 11.75 +70 28 01.1 18.3 VqEG075970 K14G48Y KC2014 04 09.92908 15 34 05.98 +70 28 20.9 18.3 VqEG075970 K14G48Y KC2014 04 09.93999 15 34 00.47 +70 28 40.2 18.2 VqEG075970 K14G48Y KC2014 04 09.98605 15 33 36.46 +70 30 05.0 18.5 RqEG075K38 K14G48Y KC2014 04 10.00855 15 33 24.67 +70 30 44.0 18.6 RqEG075K38 K14G48Y KC2014 04 10.01011715 33 24.35 +70 30 45.9 18.4 VqEG075I93 K14G48Y KC2014 04 10.01858915 33 19.88 +70 31 00.7 18.6 VqEG075I93 K14G48Y KC2014 04 10.02779715 33 15.06 +70 31 16.8 18.5 VqEG075I93 K14G48Y C2014 04 10.61459 15 28 07.89 +70 47 44.2 18.5 VqEG075900 K14G48Y C2014 04 10.62173 15 28 03.56 +70 47 57.0 18.1 VqEG075900 K14G48Y C2014 04 10.62816 15 28 00.27 +70 48 08.0 18.1 VqEG075900 K14G48Y KC2014 04 10.88305 15 25 40.02 +70 55 02.0 18.3 RqEG075K38 K14G48Y KC2014 04 10.90554 15 25 27.09 +70 55 41.9 18.4 RqEG075K38 K14G48Y KC2014 04 10.92804 15 25 14.16 +70 56 22.5 17.8 RqEG075K38 K14G48Y C2014 04 11.19096 15 22 43.66 +71 03 32.6 18.3 rEG075718 K14G48Y C2014 04 11.19432 15 22 41.75 +71 03 39.0 18.1 rEG075718 K14G48Y C2014 04 11.19715 15 22 40.09 +71 03 44.6 17.8 rEG075718 K14G48Y KC2014 04 11.86898 15 15 47.67 +71 22 14.2 18.5 VqEG075C47 K14G48Y KC2014 04 11.87784 15 15 41.89 +71 22 29.5 17.6 VqEG075C47 K14G48Y KC2014 04 11.88709 15 15 37.00 +71 22 39.1 17.3 RqEG075C23 K14G48Y KC2014 04 11.89432 15 15 32.22 +71 22 51.5 17.5 RqEG075C23 K14G48Y KC2014 04 11.89721 15 15 30.46 +71 22 56.5 17.4 RqEG075C23 K14G48Y KC2014 04 11.90009 15 15 28.62 +71 23 02.1 17.2 RqEG075C23 K14G48Y KC2014 04 11.90299 15 15 26.49 +71 23 07.4 17.4 RqEG075C23 K14G48Y KC2014 04 11.90587 15 15 24.96 +71 23 11.6 17.3 RqEG075C23 K14G48Y KC2014 04 11.90876 15 15 22.78 +71 23 16.6 17.6 RqEG075C23 Observer details: 151 Eschenberg Observatory, Winterthur. Observer M. Griesser. 0.40-m f/5.9 Hypergraph + CCD. 300 Bisei Spaceguard Center--BATTeRS. Observers S. Okumura, S. Urakawa, A. Asami. 1.0-m f/3.0 reflector + CCD. 461 University of Szeged, Piszkesteto Stn. (Konkoly). Observers K. Sarneczky, I. Papp. Measurer K. Sarneczky. 0.60-m Schmidt + CCD. 703 Catalina Sky Survey. Observers E. J. Christensen, R. J. Sanders. Measurers E. J. Christensen, A. R. Gibbs, A. D. Grauer, R. E. Hill, J. A. Johnson, R. A. Kowalski, S. M. Larson, F. C. Shelly. 0.68-m Schmidt + CCD. 718 Tooele. Observer P. Wiggins. 0.35-m f/5.5 Schmidt-Cassegrain + CCD. 900 Moriyama. Observer Y. Ikari. 0.26-m f/7.0 reflector + CCD. 958 Observatoire de Dax. Observers P. Dupouy, J. B. de Vanssay. Measurer P. Dupouy. 0.43-m f/2.7 reflector + CCD. 970 Chelmsford. Observer N. James. 0.28-m f/10 Schmidt-Cassegrain + CCD. B20 Observatorio Carmelita, Tiana. Observer J. M. Aymami. 0.25-m f/4.3 Schmidt-Cassegrain + CCD. C23 Olmen. Observer A. Diepvens. 0.20-m f/9 refractor + CCD. C47 Nonndorf. Observer G. Dangl. 0.25-m f/4.8 reflector + CCD. H01 Magdalena Ridge Observatory, Socorro. Observer W. H. Ryan. 2.4-m f/8.9 reflector + CCD. H21 Astronomical Research Observatory, Westfield. Observer R. Holmes. Measurers S. Foglia, L. Buzzi, H. Devore, T. Linder, T. Lister, T. Vorobjov. 0.61-m f/4.0 astrograph + CCD. H36 Sandlot Observatory, Scranton. Observer G. Hug. 0.56-m reflector + CCD. I57 Elche. Observer J. Lozano. 0.25-m f/6.3 Corrected Dall-Kirkham + CCD. I93 St Pardon de Conques. Observer F. Losse. 0.40-m f/3.7 reflector + CCD. J69 North Observatory, Clanfield. Observer D. Briggs. 0.41-m f/4.5 reflector + CCD. J95 Great Shefford. Observer P. Birtwhistle. 0.40-m f/6.0 Schmidt-Cassegrain + CCD. K38 M57 Observatory, Saltrio. Observer G. Baj. 0.13-m f/8 refractor + CCD. K51 Osservatorio del Celado, Castello Tesino. Observers R. Furgoni, R. Broccato. Measurer R. Furgoni. 0.80-m f/4 reflector + CCD. O75 ISON-Hureltogoot Observatory. Observers T. Namkhai, S. Schmalz. Measurers V. Savanevych, S. Schmalz. 0.4-m f/2.3 reflector + CCD. Orbital elements: 2014 GY48 PHA, Earth MOID = 0.0231 AU Epoch 2014 May 23.0 TT = JDT 2456800.5 MPC M 355.63296 (2000.0) P Q n 0.49250373 Peri. 213.36021 -0.40019416 +0.82963405 a 1.5880458 Node 37.77049 -0.63823127 +0.05253286 e 0.4109294 Incl. 39.46351 -0.65765149 -0.55583059 P 2.00 H 18.3 G 0.15 U 8 Residuals in seconds of arc 140408 703 0.2- 0.2+ 140408 J69 0.2- 0.2+ 140409 151 0.1+ 0.8- 140408 703 0.8- 0.3- 140408 C23 0.0 0.1+ 140409 K51 0.3- 0.1- 140408 703 0.6- 0.1- 140408 C23 0.4- 0.3- 140409 K51 0.1+ 0.3- 140408 H01 0.5- 0.3+ 140408 J69 0.3- 0.9+ 140409 K51 0.0 0.2- 140408 H01 0.5- 0.1+ 140408 C23 0.0 0.6- 140409 K51 0.1+ 0.4- 140408 H01 0.4- 0.1+ 140408 J69 0.2+ 0.2+ 140409 C23 (4.0+ 3.4-) 140408 H01 0.4- 0.0 140408 970 0.0 0.2- 140409 B20 (1.7- 1.4+) 140408 703 0.3- 0.3+ 140408 970 0.1+ 0.2- 140409 K38 0.2- 0.2- 140408 703 0.8- 0.2- 140409 H01 0.0 0.5- 140409 B20 1.4- 1.2+ 140408 703 0.2- 0.1- 140409 H01 0.0 0.5- 140409 C23 (2.9+ 4.3-) 140408 703 0.5- 0.9+ 140409 H01 0.1+ 0.3- 140409 B20 (1.0- 1.6+) 140408 300 0.5+ 0.4+ 140409 H01 0.1- 0.5- 140409 K38 0.3- 0.2- 140408 300 0.2+ 0.1+ 140409 H21 0.5+ 0.4- 140409 970 0.0 0.1- 140408 300 0.5- 0.5+ 140409 H21 0.4+ 0.4- 140409 970 0.1- 0.3- 140408 300 0.4+ 0.8+ 140409 H21 0.4+ 0.4- 140409 970 0.2+ 0.3- 140408 300 0.1+ 1.0+ 140409 H36 0.1+ 0.3- 140409 K38 0.3- 0.2- 140408 O75 0.6- 1.1- 140409 H36 0.1- 0.4- 140410 K38 0.1- 0.2- 140408 O75 0.5- 1.5- 140409 703 0.2+ 0.3+ 140410 I93 0.4- 0.1- 140408 O75 (2.4- 0.2-) 140409 703 0.8+ 1.5- 140410 I93 0.4- 0.1- 140408 970 0.5- 0.1- 140409 703 0.0 0.3- 140410 I93 0.2- 0.0 140408 970 0.4- 0.4- 140409 703 0.2- 1.6- 140410 900 0.9- 0.4+ 140408 970 0.0 0.2- 140409 300 0.3+ 0.9- 140410 900 (2.2- 0.7+) 140408 J95 0.2+ 0.3- 140409 300 0.7+ 0.5- 140410 900 0.3- 0.4+ 140408 970 0.1- 0.4- 140409 300 0.0 0.6- 140410 K38 1.4- 0.5+ 140408 J95 0.4+ 0.1- 140409 300 0.2+ 0.8- 140410 K38 1.3- 0.5+ 140408 J95 0.1- 0.4- 140409 300 0.8+ 0.7- 140410 K38 0.6- 1.4+ 140408 970 0.2- 0.1- 140409 461 0.2+ 0.3+ 140411 718 (1.8- 0.3+) 140408 970 0.1- 0.1- 140409 461 0.1- 0.1- 140411 718 1.4- 0.7+ 140408 958 0.8- 0.2+ 140409 461 0.3+ 0.1- 140411 718 1.3- 1.2+ 140408 I57 0.3+ 0.3- 140409 461 0.3+ 0.2- 140411 C47 (4.3- 2.4+) 140408 958 0.5- 0.0 140409 461 0.0 0.0 140411 C47 (4.3- 2.4+) 140408 J69 0.0 1.3+ 140409 461 0.0 0.3+ 140411 C23 0.3+ 0.6- 140408 I57 0.9+ 0.3+ 140409 461 0.1+ 0.2+ 140411 C23 0.0 0.8- 140408 958 0.6- 0.1+ 140409 461 0.1+ 0.2- 140411 C23 0.6+ 0.7- 140408 I57 0.5+ 0.7+ 140409 461 0.4+ 0.2+ 140411 C23 0.8+ 0.1- 140408 J69 0.3- 0.4+ 140409 461 0.3- 0.3+ 140411 C23 0.4- 0.2+ 140408 J69 0.9- 0.2+ 140409 461 0.1+ 0.1+ 140411 C23 1.3+ 0.6- 140408 C23 0.1+ 0.8- 140409 151 0.0 0.4- 140411 C23 0.1- 0.6- 140408 C23 0.1- 0.5- 140409 151 0.0 0.4+ Ephemeris: 2014 GY48 a,e,i = 1.59, 0.41, 39 q = 0.9355 Date TT R. A. (2000) Decl. Delta r Elong. Phase V 2014 03 13 16 34 27.5 +60 27 17 0.6229 1.2583 99.7 51.1 19.7 ... 2014 03 28 16 28 10.6 +64 59 57 0.4661 1.1684 99.4 57.4 19.1 ... 2014 04 05 16 04 51.6 +68 12 46 0.3782 1.1227 98.9 61.7 18.6 ... 2014 04 11 15 24 30.7 +70 58 14 0.3113 1.0901 98.1 65.5 18.3 2014 04 12 15 14 21.2 +71 25 42 0.3001 1.0849 97.9 66.2 18.2 2014 04 13 15 02 49.1 +71 52 14 0.2890 1.0797 97.6 67.0 18.1 ... 2014 04 19 13 14 40.2 +73 17 18 0.2236 1.0497 95.6 72.2 17.7 ... 2014 04 27 09 51 14.0 +61 45 19 0.1478 1.0138 88.6 83.0 17.1 ... 2014 05 12 07 21 15.1 -11 55 35 0.1561 0.9622 67.9 103.5 18.0 A. U. Tomatic (C) Copyright 2014 MPC M.P.E.C. 2014-G75
